This is the latest recevied weather packets stored in our database for station/object TG9SRP-22. If no packets are shown the sender has not sent any weather packets the latest 10 day(s).
| Time | Temp. | Humidity | Pressure | Rain* | Wind** | Luminosity | Snow |
|---|---|---|---|---|---|---|---|
| 1777168540 | 16.11° C | 10% | - | 0 mm | - | - | - |
| 1777167939 | 15° C | 10% | - | 0 mm | - | - | - |
| 1777167339 | 15° C | 10% | - | 0 mm | - | - | - |
| 1777166738 | 16.11° C | 10% | - | 0 mm | - | - | - |
| 1777166137 | 15° C | 91% | 1013 hPa | 0 mm | - | - | - |
| 1777165537 | 15° C | 83% | 1013 hPa | 0 mm | - | - | - |
| 1777164936 | 16.11° C | 81% | 1013 hPa | 0 mm | - | - | - |
| 1777164335 | 17.22° C | 78% | 1013 hPa | 0 mm | - | - | - |
| 1777163735 | 18.33° C | 75% | 1013 hPa | 0 mm | - | - | - |
| 1777163134 | 19.44° C | 73% | 1011 hPa | 0 mm | - | - | - |
| 1777162534 | 20° C | 73% | 1011 hPa | 0 mm | - | - | - |
| 1777161934 | 20.56° C | 73% | 1011 hPa | 0 mm | - | - | - |
| 1777156767 | 22.22° C | 74% | 1010 hPa | 0 mm | - | - | - |
| 1777156166 | 23.33° C | 70% | 1010 hPa | 0 mm | - | - | - |
| 1777155566 | 21.11° C | 73% | 1010 hPa | 0 mm | - | - | - |
| 1777154965 | 22.22° C | 69% | 1010 hPa | 0 mm | - | - | - |
| 1777154365 | 22.22° C | 69% | 1010 hPa | 0 mm | - | - | - |
| 1777153764 | 22.78° C | 69% | 1010 hPa | 0 mm | - | - | - |
| 1777153164 | 22.78° C | 69% | 1010 hPa | 0 mm | - | - | - |
| 1777152563 | 23.33° C | 69% | 1010 hPa | 0 mm | - | - | - |
| 1777151962 | 22.78° C | 71% | 1010 hPa | 0 mm | - | - | - |
| 1777151362 | 23.33° C | 73% | 1010 hPa | 0 mm | - | - | - |
| 1777150761 | 22.22° C | 73% | 1010 hPa | 0 mm | - | - | - |
| 1777150161 | 23.33° C | 69% | 1010 hPa | 0 mm | - | - | - |
| 1777149560 | 24.44° C | 64% | 1010 hPa | 0 mm | - | - | - |
* Rain latest hour (hover to see other rain measurements)
** Current wind speed in m/s (hover to see current wind gust speed)